Terminal Aerodrome Forecast
Issued by NWS

Home | Current Version | Previous Version | Text Only | Print | Product List | Glossary On
Versions: 1 2 3 4 5 6 7 8 9 10 11 12 13 14 15 16 17 18 19 20 21 22 23 24 25 26 27 28 29 30
765
FTUS46 KLOX 210302 AAA
TAFLAX
TAF AMD
KLAX 210302Z 2103/2206 25010KT P6SM SKC
     FM210600 26006KT P6SM SCT010
     FM210800 VRB03KT P6SM BKN008
     FM211300 VRB03KT 5SM BR OVC012
     FM211800 26007KT 6SM HZ SKC
     FM212100 26011KT P6SM SKC
     FM220400 26007KT P6SM SKC=

USA.gov is the U.S. government's official web portal to all federal, state and local government web resources and services.